FW93366 Weather Reports


time (UTC)temp
C
wind
direction
speed
KPH
gust
KPH
rain 1hr
cm
rain 24hr
cm
rain mn
cm
humidity
%
barometer
mb
20260510181553 23 186 0.0 6.4 0.00 0.00 0.00 28 1019.0
20260510180101 22 198 0.0 6.4 0.00 0.00 0.00 28 1019.2
20260510174546 21 202 3.2 11.3 0.00 0.00 0.00 35 1019.3
20260510173042 20 0 3.2 6.4 0.00 0.00 0.00 37 1019.4
20260510171601 18 296 3.2 8.0 0.00 0.00 0.00 39 1019.5
20260510170038 18 0 1.6 6.4 0.00 0.00 0.00 47 1019.6
20260510164548 17 188 3.2 6.4 0.00 0.00 0.00 47 1019.7
20260510163047 16 259 1.6 6.4 0.00 0.00 0.00 43 1019.8
20260510161544 16 0 0.0 3.2 0.00 0.00 0.00 45 1019.9
20260510160052 15 207 1.6 4.8 0.00 0.00 0.00 49 1020.1
20260510154558 14 208 1.6 6.4 0.00 0.00 0.00 49 1020.0
20260510153059 13 0 0.0 0.0 0.00 0.00 0.00 51 1020.0
20260510151546 12 0 0.0 1.6 0.00 0.00 0.00 49 1020.2
20260510150106 11 0 0.0 0.0 0.00 0.00 0.00 52 1020.2
20260510144611 11 0 0.0 0.0 0.00 0.00 0.00 56 1020.3
20260510143043 10 0 0.0 0.0 0.00 0.00 0.00 57 1020.2
20260510141544 8 0 0.0 0.0 0.00 0.00 0.00 59 1020.2
20260510140046 7 0 0.0 0.0 0.00 0.00 0.00 62 1020.2
20260510134550 6 0 0.0 0.0 0.00 0.00 0.00 63 1020.2
20260510133040 6 0 0.0 0.0 0.00 0.00 0.00 71 1020.2
20260510131539 6 0 0.0 0.0 0.00 0.00 0.00 70 1020.2
20260510130049 6 0 0.0 0.0 0.00 0.00 0.00 68 1020.0
20260510124547 6 0 0.0 0.0 0.00 0.00 0.00 70 1020.2
20260510123050 6 0 0.0 0.0 0.00 0.00 0.00 69 1020.2
20260510121540 6 0 0.0 0.0 0.00 0.00 0.00 66 1020.2
20260510120039 6 0 0.0 0.0 0.00 0.00 0.00 63 1020.2
20260510114539 6 0 0.0 0.0 0.00 0.00 0.00 67 1020.1
20260510113044 6 0 0.0 0.0 0.00 0.00 0.00 66 1020.1
20260510111549 7 0 0.0 0.0 0.00 0.00 0.00 61 1020.0
20260510110042 7 0 0.0 0.0 0.00 0.00 0.00 66 1020.0
20260510104555 7 0 0.0 0.0 0.00 0.00 0.00 65 1019.9
20260510103047 7 0 0.0 0.0 0.00 0.00 0.00 63 1019.8
20260510101550 7 0 0.0 0.0 0.00 0.00 0.00 66 1019.8
20260510100051 7 0 0.0 0.0 0.00 0.00 0.00 65 1019.8
20260510094544 8 0 0.0 0.0 0.00 0.00 0.00 65 1019.8
20260510093046 8 0 0.0 0.0 0.00 0.00 0.00 65 1019.7
20260510091539 8 0 0.0 0.0 0.00 0.00 0.00 68 1019.7
20260510090046 9 0 0.0 0.0 0.00 0.00 0.00 59 1019.7
20260510084558 10 0 0.0 0.0 0.00 0.00 0.00 53 1019.7
20260510083051 10 0 0.0 0.0 0.00 0.00 0.00 55 1019.8
20260510081552 10 0 0.0 0.0 0.00 0.00 0.00 55 1019.7
20260510080043 11 0 0.0 0.0 0.00 0.00 0.00 56 1019.8
20260510074541 11 0 0.0 0.0 0.00 0.00 0.00 53 1019.8
20260510073050 11 0 0.0 0.0 0.00 0.00 0.00 48 1019.8
20260510071543 11 0 0.0 0.0 0.00 0.00 0.00 51 1019.8
20260510070043 11 0 0.0 0.0 0.00 0.00 0.00 53 1019.8
20260510064539 13 0 0.0 0.0 0.00 0.00 0.00 50 1019.7
20260510063040 13 0 0.0 0.0 0.00 0.00 0.00 47 1019.6
20260510061555 13 0 0.0 0.0 0.00 0.00 0.00 45 1019.4
20260510060047 14 0 0.0 0.0 0.00 0.00 0.00 45 1019.3
20260510054539 15 0 0.0 0.0 0.00 0.00 0.00 39 1019.4
20260510053101 15 0 0.0 4.8 0.00 0.00 0.00 43 1019.4
20260510051546 16 0 0.0 6.4 0.00 0.00 0.00 39 1019.3
20260510050045 16 0 0.0 0.0 0.00 0.00 0.00 38 1019.2
20260510044542 16 0 0.0 0.0 0.00 0.00 0.00 41 1019.2
20260510043041 17 0 0.0 0.0 0.00 0.00 0.00 40 1019.0
20260510041546 18 0 0.0 0.0 0.00 0.00 0.00 39 1018.8
20260510040048 18 0 0.0 0.0 0.00 0.00 0.00 37 1018.7
20260510034552 18 0 0.0 0.0 0.00 0.00 0.00 36 1018.5
20260510033039 19 0 0.0 0.0 0.00 0.00 0.00 35 1018.1
20260510031554 20 0 0.0 1.6 0.00 0.00 0.00 35 1017.9
20260510030048 20 0 0.0 3.2 0.00 0.00 0.00 34 1017.7
20260510024545 21 227 1.6 6.4 0.00 0.00 0.00 34 1017.5
20260510023044 23 238 3.2 8.0 0.00 0.00 0.00 30 1017.4
20260510021539 26 0 1.6 9.7 0.00 0.00 0.00 20 1017.3
20260510020038 26 0 0.0 8.0 0.00 0.00 0.00 21 1017.3
20260510014546 26 352 3.2 8.0 0.00 0.00 0.00 16 1017.2
20260510013048 26 351 3.2 8.0 0.00 0.00 0.00 18 1017.4
20260510011544 27 300 1.6 12.9 0.00 0.00 0.00 16 1017.4
20260510010036 27 290 4.8 14.5 0.00 0.00 0.00 16 1017.4
20260510004545 27 0 4.8 12.9 0.00 0.00 0.00 19 1017.6
20260510003041 27 0 1.6 11.3 0.00 0.00 0.00 17 1017.5
20260510001546 27 319 6.4 16.1 0.00 0.00 0.00 17 1017.6
20260510000046 27 215 3.2 11.3 0.00 0.00 0.00 20 1017.7
20260509234546 26 216 3.2 17.7 0.00 0.00 0.00 18 1017.7
20260509233043 27 246 8.0 14.5 0.00 0.00 0.00 19 1017.7
20260509231538 27 323 3.2 8.0 0.00 0.00 0.00 18 1017.9
20260509230047 26 5 3.2 9.7 0.00 0.00 0.00 18 1018.0
20260509224547 26 340 0.0 11.3 0.00 0.00 0.00 18 1018.2
20260509223042 26 44 3.2 12.9 0.00 0.00 0.00 18 1018.3
20260509221539 25 180 1.6 16.1 0.00 0.00 0.00 22 1018.5
20260509220052 25 252 4.8 19.3 0.00 0.00 0.00 23 1018.8
20260509214546 25 272 8.0 17.7 0.00 0.00 0.00 27 1019.1
20260509213044 25 237 9.7 20.9 0.00 0.00 0.00 24 1019.2
20260509211546 24 190 8.0 16.1 0.00 0.00 0.00 25 1019.3
20260509210041 24 291 4.8 12.9 0.00 0.00 0.00 23 1019.3
20260509204552 23 261 6.4 20.9 0.00 0.00 0.00 27 1019.5
20260509203043 23 251 6.4 16.1 0.00 0.00 0.00 28 1019.7
20260509201544 23 192 3.2 16.1 0.00 0.00 0.00 28 1019.7
20260509200044 23 189 4.8 12.9 0.00 0.00 0.00 29 1019.8
20260509194539 22 302 4.8 14.5 0.00 0.00 0.00 30 1020.2
20260509193047 22 207 4.8 17.7 0.00 0.00 0.00 29 1020.5
20260509191546 22 337 4.8 8.0 0.00 0.00 0.00 27 1020.6
20260509190053 22 313 3.2 14.5 0.00 0.00 0.00 29 1020.8
20260509184558 21 309 4.8 19.3 0.00 0.00 0.00 31 1021.0
20260509183040 21 0 0.0 8.0 0.00 0.00 0.00 30 1021.1